ASTRA 2E

Last updated on Thu Nov 21 2024 00:02:42 GMT+0000 (Coordinated Universal Time)

1 39285U 13056A 24325.30096918 .00000152 00000+0 00000+0 0 9990 2 39285 0.0640 331.3593 0002656 274.4880 310.8092 1.00270644 40672
UTC large
Height (km)
Speed (km/s)
/
Latitude / Longitude
Inclination (degrees)
Orbital Period (minutes)
Azimuth
Elevation
Range (km)
Doppler Factor

Next 0 passes for location: London (51.5072 / 0.1276)

Sorry there are no passes over London.